COSMOS 2542 (44797 NORAD) Tracking and Keplerian Element Data

This shows tracking and keplerian element data for the satellite.

Feedback or suggestion? Click here.




ElementValue
Catalog44797
NameCOSMOS 2542
Epoch Orbit1907
Epoch Day93.87015846
Epoch Year2020
RAAN154.2393
Inclination97.6284
Eccentricity0.038449
Argument of Perigee259.5633
Mean Anonmoly96.2043
Mean Motion14.75754859
Decay Rate1.493E-05
L11 44797U 19079A 20093.87015846 .00001493 00000-0 66683-4 0 9990
L22 44797 97.6284 154.2393 0384490 259.5633 96.2043 14.75754859 19073

Live tracking and technical data element details for COSMOS 2542 (NORAD 44797). COSMOS 2542 can be tracked NOW for your location showing map with azimuth and elevation plus other details from your city location.

Track the satellite on the map from your city or location and see movement details for azimuth, elevation, latitude, longitude, range, height, and movement on the map or in text.







IsCatalogInMostPopularTable: catalog: 44797, numindb: 36
Update: records affected: 1



GetName: 44797 COSMOS 2542

Hit Count: updated at: Fri, 10 Apr 2020 20:00:46 GMT